Weather History for Eau Claire, WI

Change the Weather History Date:

Thursday, November 25, 2010

  Actual Average Record
Temperature  
Mean Temperature 22 °F 28 °F  
Max Temperature 32 °F 36 °F 55 °F (1960)
Min Temperature 11 °F 20 °F -11 °F (1898)
Degree Days  
Heating Degree Days 43 37  
Month to date heating degree days 724 766  
Since 1 July heating degree days 1413 1550  
Cooling Degree Days 0 0  
Month to date cooling degree days 0 0  
Year to date cooling degree days 685 579  
Moisture  
Dew Point 11 °F    
Average Humidity 73    
Maximum Humidity 92    
Minimum Humidity 53    
Precipitation  
Precipitation T in 0.06 in 0.91 in (1952)
Month to date precipitation 2.12 1.57  
Year to date precipitation 34.41 29.71  
Snow  
Snow T in 0.30 in 5.10 in (1993)
Month to date snowfall 2.1 4.5  
Since 1 July snowfall 2.1 4.9  
Since 1 September snowfall 2.1 4.9  
Snow Depth T in    
Sea Level Pressure  
Sea Level Pressure 29.76 in    
Wind  
Wind Speed 14 mph (West)    
Max Wind Speed 28 mph    
Max Gust Speed 36 mph    
Visibility 9 miles    
Events Snow    
T = Trace of Precipitation, MM = Missing Value Source: NWS Daily Summary

Daily Weather History Graph

Daily Weather History Graph

Search for Another Location

Airport:

Trip Planner

Search our weather history database for the weather conditions in past years. The results will help you decide how hot, cold, wet, or windy it might be!

Date:

Astronomy

Nov. 25, 2010 Rise Set
Actual Time 7:16 AM CST 4:29 PM CST
Civil Twilight 6:43 AM CST 5:01 PM CST
Nautical Twilight 6:07 AM CST 5:38 PM CST
Astronomical Twilight 5:32 AM CST 6:13 PM CST
Moon 8:27 PM CST 10:46 AM CST
Length of Visible Light 10h 18m
Length of Day
9h 12m
Waning Gibbous, 82% of the Moon is Illuminated
Nov 25
Waning Gibbous
Nov 28
Last Quarter
Dec 5
New
Dec 13
First Quarter
Dec 21
Full

Hourly Weather History & Observations

Time (CST) Temp. Windchill Dew Point Humidity Pressure Visibility Wind Dir Wind Speed Gust Speed Precip Events Conditions
12:56 AM 32.0 °F 28.7 °F 32.0 °F 100% 29.70 in 4.0 mi SSW 3.5 mph - 0.00 in Snow Light Snow
1:48 AM 32.0 °F 28.7 °F 30.2 °F 93% 29.65 in 4.0 mi WSW 3.5 mph - 0.00 in Snow Light Snow
1:56 AM 32.0 °F 26.4 °F 30.2 °F 93% 29.66 in 4.0 mi WSW 5.8 mph - N/A Snow Light Snow
2:56 AM 30.9 °F 21.7 °F 28.9 °F 92% 29.70 in 7.0 mi West 11.5 mph 20.7 mph 0.00 in   Overcast
3:28 AM 30.2 °F 20.2 °F 28.4 °F 93% 29.67 in 9.0 mi West 12.7 mph - N/A   Overcast
3:38 AM 30.2 °F 21.3 °F 28.4 °F 93% 29.68 in 9.0 mi West 10.4 mph - N/A   Overcast
3:56 AM 30.0 °F 20.5 °F 27.0 °F 88% 29.71 in 7.0 mi West 11.5 mph - N/A   Overcast
4:56 AM 21.9 °F 9.8 °F 19.0 °F 89% 29.74 in 8.0 mi West 12.7 mph 23.0 mph N/A   Overcast
5:10 AM 21.2 °F 7.8 °F 17.6 °F 86% 29.71 in 10.0 mi West 15.0 mph - N/A   Overcast
5:21 AM 21.2 °F 8.9 °F 17.6 °F 86% 29.71 in 10.0 mi West 12.7 mph 23.0 mph N/A   Overcast
5:53 AM 19.4 °F 4.5 °F 14.0 °F 80% 29.74 in 10.0 mi West 17.3 mph - N/A   Overcast
5:56 AM 19.0 °F 4.0 °F 12.9 °F 77% 29.78 in 10.0 mi West 17.3 mph - N/A   Overcast
6:56 AM 16.0 °F 1.1 °F 8.1 °F 71% 29.81 in 10.0 mi West 15.0 mph 24.2 mph N/A   Overcast
7:56 AM 14.0 °F 0.5 °F 6.1 °F 71% 29.85 in 10.0 mi West 11.5 mph - N/A   Mostly Cloudy
8:56 AM 12.0 °F -1.3 °F 3.0 °F 67% 29.88 in 10.0 mi West 10.4 mph - N/A   Clear
9:56 AM 12.9 °F -1.6 °F 1.9 °F 62% 29.88 in 10.0 mi West 12.7 mph 18.4 mph N/A   Clear
10:56 AM 15.1 °F 3.3 °F 3.9 °F 61% 29.86 in 10.0 mi West 9.2 mph 19.6 mph N/A   Clear
11:56 AM 16.0 °F 2.9 °F 3.9 °F 59% 29.82 in 10.0 mi West 11.5 mph - N/A   Clear
12:56 PM 15.1 °F -0.1 °F 5.0 °F 64% 29.80 in 10.0 mi WSW 15.0 mph - N/A   Clear
1:56 PM 15.8 °F -0.6 °F 1.4 °F 53% 29.75 in 10.0 mi WSW 18.4 mph 23.0 mph N/A   Clear
2:56 PM 16.0 °F 0.6 °F 3.0 °F 57% 29.79 in 10.0 mi WSW 16.1 mph 23.0 mph N/A   Clear
3:56 PM 12.9 °F -4.9 °F 1.0 °F 59% 29.80 in 10.0 mi West 19.6 mph 28.8 mph N/A   Scattered Clouds
4:56 PM 12.9 °F -1.6 °F 3.0 °F 65% 29.80 in 10.0 mi West 12.7 mph 20.7 mph N/A   Mostly Cloudy
5:56 PM 12.9 °F -3.9 °F 6.1 °F 74% 29.81 in 10.0 mi WSW 17.3 mph 25.3 mph N/A   Overcast
6:16 PM 12.2 °F -3.1 °F 6.8 °F 79% 29.75 in 2.5 mi West 13.8 mph 23.0 mph 0.00 in Snow Light Snow
6:24 PM 12.2 °F -5.8 °F 6.8 °F 79% 29.75 in 3.0 mi West 19.6 mph 29.9 mph 0.00 in Snow Light Snow
6:56 PM 12.0 °F -6.5 °F 1.9 °F 64% 29.81 in 10.0 mi WSW 20.7 mph 31.1 mph 0.00 in   Mostly Cloudy
7:56 PM 12.0 °F -4.5 °F 3.9 °F 70% 29.79 in 10.0 mi WSW 16.1 mph 27.6 mph N/A   Overcast
8:56 PM 12.0 °F -4.5 °F 5.0 °F 73% 29.78 in 8.0 mi WSW 16.1 mph 24.2 mph 0.00 in   Overcast
9:28 PM 12.2 °F -4.8 °F 5.0 °F 73% 29.72 in 10.0 mi WSW 17.3 mph 27.6 mph N/A   Overcast
9:56 PM 12.9 °F -3.4 °F 3.9 °F 67% 29.78 in 10.0 mi West 16.1 mph 23.0 mph N/A   Overcast
10:56 PM 12.9 °F -2.2 °F 5.0 °F 71% 29.78 in 10.0 mi West 13.8 mph 27.6 mph N/A   Overcast
11:56 PM 12.9 °F -2.2 °F 6.1 °F 74% 29.77 in 10.0 mi WSW 13.8 mph 21.9 mph N/A   Overcast